Oroville, CA

1:32 PM PST on February 20, 2017 (GMT -0800)
Oroville Municipal

Weather History for KOVE - April, 2014

Change the Weather History Date:

Saturday, April 5, 2014

  Actual Average Record
Temperature  
Mean Temperature 56 °F -  
Max Temperature 72 °F 71 °F 86 °F (1960)
Min Temperature 41 °F 46 °F 34 °F (2012)
Degree Days  
Heating Degree Days 9    
Growing Degree Days 6 (Base 50)    
Moisture  
Dew Point 42 °F    
Average Humidity 61    
Maximum Humidity 89    
Minimum Humidity 31    
Precipitation  
Precipitation 0.00 in - - ()
Sea Level Pressure  
Sea Level Pressure 30.11 in    
Wind  
Wind Speed 3 mph (NW)    
Max Wind Speed 10 mph    
Max Gust Speed 17 mph    
Visibility 10 miles    
Events      
Averages and records for this station are not official NWS values.
T = Trace of Precipitation, MM = Missing Value Source: NWS Daily Summary

Daily Weather History Graph

Daily Weather History Graph

Search for Another Location

Airport or City:

Trip Planner

Search our weather history database for the weather conditions in past years. The results will help you decide how hot, cold, wet, or windy it might be!

Date:

Astronomy

Apr. 05, 2014 Rise Set
Actual Time 6:44 AM PDT 7:34 PM PDT
Civil Twilight 6:17 AM PDT 8:01 PM PDT
Nautical Twilight 5:44 AM PDT 8:34 PM PDT
Astronomical Twilight 5:11 AM PDT 9:07 PM PDT
Moon 10:57 AM PDT (4/5) 12:47 AM PDT (4/5)
Length of Visible Light 13h 44m
Length of Day
12h 50m
Waxing Crescent, 35% of the Moon is Illuminated
Apr 5
Waxing Crescent
Apr 7
First Quarter
Apr 15
Full
Apr 22
Last Quarter
Apr 28
New

Hourly Weather History & Observations

Time (PDT) Temp. Windchill Dew Point Humidity Pressure Visibility Wind Dir Wind Speed Gust Speed Precip Events Conditions
12:53 AM 48.0 °F - 43.0 °F 83% 30.06 in 10.0 mi Calm Calm - N/A   Clear
1:53 AM 45.0 °F 43.5 °F 41.0 °F 86% 30.07 in 10.0 mi North 3.5 mph - N/A   Clear
2:53 AM 46.0 °F - 41.0 °F 83% 30.07 in 10.0 mi Calm Calm - N/A   Clear
3:53 AM 44.1 °F - 41.0 °F 89% 30.07 in 10.0 mi Calm Calm - N/A   Clear
4:53 AM 44.1 °F - 39.9 °F 85% 30.06 in 10.0 mi Calm Calm - N/A   Clear
5:53 AM 42.1 °F 40.2 °F 39.0 °F 89% 30.08 in 10.0 mi WNW 3.5 mph - N/A   Clear
6:53 AM 41.0 °F 39.0 °F 37.0 °F 86% 30.09 in 10.0 mi NW 3.5 mph - N/A   Clear
7:53 AM 46.9 °F - 42.1 °F 83% 30.11 in 10.0 mi Calm Calm - N/A   Clear
8:53 AM 52.0 °F - 41.0 °F 66% 30.12 in 10.0 mi West 4.6 mph - N/A   Clear
9:53 AM 53.1 °F - 44.1 °F 71% 30.14 in 10.0 mi Calm Calm - N/A   Clear
10:53 AM 59.0 °F - 43.0 °F 55% 30.14 in 10.0 mi NW 5.8 mph - N/A   Clear
11:53 AM 62.1 °F - 44.1 °F 52% 30.14 in 10.0 mi NW 5.8 mph - N/A   Clear
12:53 PM 66.0 °F - 46.0 °F 48% 30.13 in 10.0 mi WNW 10.4 mph - N/A   Clear
1:53 PM 68.0 °F - 43.0 °F 40% 30.12 in 10.0 mi WNW 9.2 mph 17.3 mph N/A   Clear
2:53 PM 70.0 °F - 39.9 °F 33% 30.10 in 10.0 mi NNW 8.1 mph - N/A   Clear
3:53 PM 71.1 °F - 39.0 °F 31% 30.09 in 10.0 mi NNW 8.1 mph - N/A   Clear
4:53 PM 71.1 °F - 39.0 °F 31% 30.10 in 10.0 mi NNW 6.9 mph - N/A   Clear
5:53 PM 71.1 °F - 39.0 °F 31% 30.10 in 10.0 mi Variable 5.8 mph - N/A   Clear
6:53 PM 69.1 °F - 42.1 °F 38% 30.10 in 10.0 mi West 3.5 mph - N/A   Clear
7:53 PM 64.9 °F - 42.1 °F 43% 30.11 in 10.0 mi West 3.5 mph - N/A   Clear
8:53 PM 61.0 °F - 44.1 °F 54% 30.14 in 10.0 mi ENE 4.6 mph - N/A   Clear
9:53 PM 57.0 °F - 44.1 °F 62% 30.15 in 9.0 mi Calm Calm - N/A   Clear
10:53 PM 55.9 °F - 44.1 °F 64% 30.17 in 10.0 mi Calm Calm - N/A   Clear
11:53 PM 55.0 °F - 44.1 °F 67% 30.19 in 10.0 mi Calm Calm - N/A   Clear